METEOR 2-5 DEB

Satellite information

Favourite Embed

Satellite Type and Status

DEBRISIN ORBIT

Key statistics

Satellite METEOR 2-5 DEB at a glance.

Uptime

16626

Days in orbit

Revolutions

≈ 14.4

Per day

Orbit

LEO

Low Earth Orbit

Inclination

81.2

Latest

Satellite identification and parameters

Extended collection of information and parameters for METEOR 2-5 DEB.

Object identification

Identified? True

Debris? True

Object name: METEOR 2-5 DEB

International designator: 1979-095BW

Object number (NORAD): 38276

Object ID (CCSDS): 38276

Country: COMMONWEALTH OF INDEPENDENT STATES (CIS)

Current information (Y/N): Y

RCS size: SMALL

Orbital parameters

Period: 100.279 minutes

Inclination: 81.1877 deg

SMA: 7149.912 km

Apoapsis: 790.528 km

Periapsis: 753.025 km

RAAN: 187.5535 deg

Eccentricy: 0.0026226

Argument of periapsis: 154.6674 deg

Mean anomaly: 266.1051 deg

Mean motion: 14.35991053 rev/day

Mean motion (dot): 0.00007889 rev/day2

B* drag term: 0.0027001 1/REarth

Two-line elements (TLE)

Creation date: May 6, 2025, 3:54 a.m.

Reference frame: TEME

Reference center: EARTH

Epoch: May 5, 2025, 11:24 a.m. UTC

TLE line 0: 0 METEOR 2-5 DEB

TLE line 1: 1 38276U 79095BW 25125.47513951 .00007889 00000-0 27001-2 0 9990

TLE line 2: 2 38276 81.1877 187.5535 0026226 154.6674 266.1051 14.35991053692676

Live tracking on map

Real-time ground track for satellite METEOR 2-5 DEB.

In-orbit conjunctions

A list of the most updated potential collisions computed for object METEOR 2-5 DEB.

Target Orbit TCA Probability of collision Miss distance Type
SL-6 R/B SSO 2024-08-08 21:28:00 0.001371405 47.0 (m) ROCKET BODY

Associated space launch

Second generation soviet meteorological satellite

METEOR 2-5 DEB was lifted into orbit during the mission ‘Vostok 8A92M | Meteor-2 5’, on board a Vostok 8A92M space rocket.

The launch took place on Oct. 31, 1979, 9:25 a.m. from 43/4 (43R).

For more information about the launch, click the button.

Launch to space Vostok 8A92M | Meteor-2 5
Vostok 8A92M | Meteor-2 5

Agency: N/A

Status: Launch Successful

Launch date: Oct. 31, 1979, 9:25 a.m. UTC

Rocket: Vostok 8A92M

Launch pad: 43/4 (43R)

Location: Plesetsk Cosmodrome, Russian Federation

...

Latest news about this satellite

There are no fresh news available about this satellite. Check back as we update our databases every day.


Newsletter sign-up

Weekly statistics, charts and insights to help you stay on top of the space industry.